Theta_e
321 320 318 318 316 313 312 311 333 337 342 337 329 337 348 348 347 346 346 345 346 344 349 347 346 347 347 346 346 348 349 348
320 319 318 316 313 313 309 316 342 332 330 333 325 329 332 332 339 343 344 344 345 346 346 345 343 341 338 333 333 339 344 349
317 317 317 315 316 311 308 308 322 328 326 328 327 323 325 326 329 334 340 344 347 347 346 345 340 334 329 328 326 321 319 324
319 318 316 317 317 311 314 317 314 318 320 323 325 324 323 323 331 337 337 337 337 338 337 334 332 331 329 329 328 323 322 320
318 317 318 319 319 312 308 309 314 318 322 322 322 322 322 321 325 327 330 334 333 332 331 331 331 330 329 329 328 326 326 324
316 319 319 322 321 317 313 314 315 318 324 323 321 320 321 323 326 329 330 327 326 326 325 325 325 326 326 327 327 327 327 326
318 321 321 322 321 320 320 316 318 320 321 321 321 320 322 322 322 323 322 322 321 321 321 321 322 322 323 323 323 323 323 325
321 320 321 321 318 318 318 317 318 320 321 319 320 322 322 322 322 322 320 319 317 316 316 316 318 318 319 320 321 322 322 322
321 318 320 319 318 322 322 319 321 322 320 320 320 321 322 322 319 317 317 317 317 317 317 317 316 316 318 317 317 317 320 323
318 318 323 318 321 322 323 322 320 320 320 321 320 320 322 319 316 316 314 312 311 311 312 313 315 315 317 318 320 322 321 320
317 316 316 320 321 321 321 323 322 322 322 320 316 319 321 318 314 309 308 308 308 308 309 309 310 312 313 319 321 323 326 327
312 316 317 316 320 320 319 323 322 322 321 319 316 313 312 314 309 309 309 310 310 310 309 309 309 309 311 312 314 318 321 322
315 315 315 316 319 319 320 317 322 321 319 317 316 314 312 309 310 309 309 310 310 309 309 309 309 308 309 309 311 312 314 316
313 316 319 319 319 318 316 322 321 319 317 316 313 309 309 309 309 309 309 309 309 310 310 310 310 309 307 309 311 311 312 312
313 313 317 321 319 320 320 321 321 319 316 313 309 309 309 309 309 309 309 309 310 311 311 310 308 307 308 310 311 311 312 311
315 317 322 322 321 321 322 321 321 318 314 310 309 308 308 309 309 309 310 311 312 312 310 309 309 309 309 311 312 312 312 312
315 318 320 322 322 322 322 321 319 315 311 309 308 308 307 308 310 311 311 312 312 311 311 309 309 309 309 310 310 311 311 313
316 319 320 319 320 321 322 321 318 313 312 310 307 307 308 309 311 312 312 313 313 313 313 310 309 310 310 310 311 311 312 313
320 320 320 319 319 320 321 321 317 314 313 312 310 309 309 311 312 313 313 313 314 314 314 313 310 311 310 310 310 311 311 313
Wind_Speed
1 2 5 3 2 4 6 3 5 3 2 3 11 7 16 20 21 20 22 22 20 18 11 11 11 11 8 9 16 19 21 28
5 5 4 4 5 2 4 3 4 3 3 2 7 6 10 12 14 11 9 11 12 16 14 12 10 6 5 7 7 10 14 18
4 5 3 5 4 7 6 4 5 4 2 6 6 7 10 17 18 17 21 24 22 19 19 12 5 1 4 8 10 10 10 10
2 4 4 4 3 4 5 1 2 5 2 5 6 14 21 21 25 20 21 21 20 17 12 6 2 5 6 7 8 11 16 18
7 7 7 7 4 4 4 3 1 5 3 7 7 12 19 23 21 18 14 12 11 9 8 7 8 10 12 15 17 19 19 18
6 5 3 3 5 3 4 4 4 1 9 4 4 6 17 21 20 20 17 13 9 6 4 5 9 14 18 21 24 27 30 29
2 2 2 1 4 4 1 4 5 7 7 4 4 7 14 15 15 13 11 10 11 13 14 14 15 16 18 21 24 28 32 35
4 6 7 4 9 10 7 6 9 13 6 5 8 11 12 11 10 12 14 17 20 22 24 24 26 27 28 29 30 30 33 35
2 4 4 4 6 3 6 7 10 8 5 5 3 7 6 7 11 14 17 20 22 23 25 28 31 33 34 36 39 41 41 36
1 4 2 4 7 13 15 9 10 9 5 5 3 2 4 4 15 18 21 25 25 27 28 30 31 31 33 34 35 37 39 42
4 2 1 4 4 2 4 2 2 6 7 3 3 6 11 7 18 20 22 25 27 28 31 29 30 28 31 30 31 34 34 36
2 3 5 6 2 8 10 1 10 9 10 6 2 2 4 14 19 21 23 25 27 29 31 34 35 30 32 32 34 35 37 41
3 2 4 5 3 7 4 6 20 15 10 7 4 4 10 12 12 15 18 22 25 26 27 31 37 36 37 35 33 33 40 41
3 3 5 5 3 5 6 13 19 14 9 6 4 3 4 6 8 13 17 18 20 27 32 36 39 42 38 33 28 28 31 37
6 5 2 3 4 5 12 16 18 12 7 5 3 3 2 5 7 10 13 16 21 26 32 39 38 33 36 29 31 31 33 37
3 2 4 6 7 11 13 9 10 8 7 7 6 4 3 4 7 13 14 16 19 22 30 38 34 29 26 28 29 34 36 35
1 3 4 11 14 16 15 12 13 12 10 6 6 6 6 5 7 11 15 18 22 21 25 34 27 30 25 29 30 38 40 33
5 10 10 8 14 20 20 17 14 9 7 5 6 7 7 9 10 15 18 19 26 25 28 25 27 29 34 38 29 40 44 40
2 9 15 5 7 15 19 16 12 10 7 2 4 6 9 11 10 15 17 23 28 28 24 15 19 31 39 35 30 41 49 44
Wind_Direction
50 81 118 182 63 176 103 15 68 318 335 357 42 47 108 127 154 178 197 210 215 184 152 136 186 197 220 242 264 262 266 268
302 40 37 106 156 50 11 129 106 323 38 331 15 15 87 104 128 162 171 171 165 195 195 165 125 103 66 14 345 301 286 277
28 17 320 354 22 52 109 96 142 121 313 359 354 8 58 51 67 88 101 106 117 129 146 141 131 94 354 344 333 332 321 310
153 312 285 98 82 107 110 223 73 118 265 9 62 75 73 62 68 78 89 98 108 116 131 132 56 360 353 343 319 318 323 321
357 351 3 44 6 96 101 85 23 114 199 83 46 70 80 75 73 76 85 80 70 53 34 8 341 323 310 304 306 311 313 310
179 202 198 354 349 72 101 103 148 189 134 110 65 80 78 83 92 91 93 85 82 70 35 347 322 315 308 307 309 310 310 311
87 337 92 212 12 13 91 159 123 178 120 133 98 85 82 79 73 62 42 22 0 342 327 314 309 302 296 294 298 301 301 301
7 357 13 40 38 68 53 100 72 113 97 137 110 112 77 58 38 17 354 337 326 317 311 305 303 300 295 288 287 289 286 285
277 346 29 17 354 69 85 57 124 139 162 134 60 80 66 42 11 348 332 324 318 310 304 301 298 299 296 290 288 287 286 288
193 18 41 320 80 88 83 64 88 93 112 109 48 288 183 12 340 329 322 321 318 313 309 301 293 291 291 285 285 285 284 280
116 126 76 146 210 198 126 215 187 140 149 157 334 198 222 280 333 335 337 339 337 333 326 319 312 301 288 286 280 274 276 277
112 142 196 218 208 147 121 272 203 180 173 186 201 351 229 315 339 341 345 348 347 347 350 354 345 327 310 303 290 287 281 276
138 167 288 241 199 137 104 243 187 189 181 182 193 240 298 328 344 1 6 2 356 356 355 347 346 335 320 311 302 294 284 284
89 91 271 164 108 160 188 153 173 184 193 194 202 242 289 338 5 4 356 355 359 351 348 342 331 330 324 316 316 310 301 292
165 210 235 192 226 203 185 180 189 196 199 210 213 226 274 314 329 350 355 347 346 345 345 341 339 333 325 324 324 321 312 305
86 210 174 161 183 193 190 204 194 202 212 207 220 223 256 322 310 314 323 333 340 341 350 347 337 342 342 345 341 335 324 314
261 256 199 224 217 206 210 214 200 202 201 205 224 260 276 306 331 338 338 341 327 329 340 352 348 351 345 351 345 336 338 333
220 209 199 224 232 219 212 210 205 198 199 218 252 262 269 295 318 325 328 338 320 329 339 352 357 0 4 359 351 350 346 346
254 225 211 244 215 218 217 212 209 214 214 246 304 286 271 303 319 318 321 325 331 334 342 332 357 10 3 5 4 360 358 357